Home > Weather > Güssing > Past weeks

Flag for Austria Past Weather in Güssing, Burgenland, Austria — Yesterday and Last 2 Weeks

Now
73 °F

Mild.


Feels Like: 73 °F
Forecast: 65 / 87 °F
Wind: 2 mph from Northwest

Location: Murska Sobota

Current Time: Jul 30, 2016 at 10:45:54 PM

Latest Report: Jul 30, 2016 at 10:00 PM


Visibility: N/A

Pressure: 29.93 "Hg

Humidity: 82%

Dew Point: 67 °F

Location of GüssingLocation

Past Weather in Güssing — Graph

°F

Güssing Temperature Yesterday

Maximum temperature yesterday: 84 °F (at 4:00 PM)
Minimum temperature yesterday: 63 °F (at 6:00 AM)
Average temperature yesterday: 74 °F

High & Low Weather Summary for the Past Weeks

 TemperatureHumidityPressure
High87 °F (Jul 30, 4:00 PM)98% (Jul 20, 6:00 AM)30.17 "Hg (Jul 20, 6:00 AM)
Low56 °F (Jul 17, 12:00 AM)42% (Jul 18, 5:00 PM)29.90 "Hg (Jul 30, 5:00 PM)
Average72 °F75%30.02 "Hg
* Reported Jul 15 9:00 PM — Jul 30 9:00 PM, Güssing, Weather by CustomWeather, © 2016

Note: Actual official high and low records may vary slightly from our data, if they occured in-between our weather recording intervals... More about our weather records

Advertising

Güssing Weather History for the Previous 24 Hours

Scroll right to see more
 ConditionsComfort  
Time TempWeatherWind HumidityBarometerVisibility
9:00 PM
Sat, Jul 30
76 °FMild.1 mph76%29.91 "HgN/A
8:00 PM80 °FWarm.1 mph63%29.90 "HgN/A
7:00 PM84 °FWarm.1 mph52%29.90 "HgN/A
6:00 PM86 °FWarm.2 mph46%29.90 "HgN/A
5:00 PM87 °FWarm.3 mph46%29.90 "HgN/A
4:00 PM87 °FWarm.2 mph44%29.90 "HgN/A
3:00 PM87 °FWarm.2 mph45%29.93 "HgN/A
2:00 PM86 °FWarm.2 mph49%29.94 "HgN/A
1:00 PM85 °FWarm.2 mph51%29.96 "HgN/A
12:00 PM82 °FWarm.2 mph57%29.97 "HgN/A
11:00 AM80 °FWarm.1 mph66%29.98 "HgN/A
10:00 AM76 °FMild.1 mph72%29.99 "HgN/A
9:00 AM73 °FMild.1 mph80%29.99 "HgN/A
8:00 AM70 °FMild.1 mph86%30.00 "HgN/A
7:00 AM66 °FMild.No wind96%29.99 "HgN/A
6:00 AM63 °FMild.1 mph95%30.00 "HgN/A
5:00 AM64 °FMild.No wind97%29.99 "HgN/A
4:00 AM64 °FMild.1 mph96%29.99 "HgN/A
3:00 AM64 °FMild.1 mph95%29.99 "HgN/A
2:00 AM64 °FMild.1 mph95%29.99 "HgN/A
1:00 AM65 °FMild.1 mph93%29.99 "HgN/A
12:00 AM67 °FMild.No wind91%29.98 "HgN/A
11:00 PM
Fri, Jul 29
68 °FMild.1 mph90%29.97 "HgN/A
10:00 PM71 °FMild.1 mph85%29.97 "HgN/A
Weather by CustomWeather, © 2016

See weather overviewHow to use our weather pages